Regional Weather Roundup
Issued by NWS

Home | Current Version | Previous Version | Text Only | Print | Product List | Glossary Off
Versions: 1 2 3 4 5 6 7 8 9 10 11 12 13 14 15 16 17 18 19 20 21 22 23 24 25 26 27 28 29 30 31 32 33 34 35 36 37 38 39 40 41 42 43 44 45 46 47 48 49 50

628
ASUS43 KBIS 031210
RWRND

NORTH DAKOTA REGIONAL WEATHER ROUNDUP
NATIONAL WEATHER SERVICE BISMARCK ND
700 AM CDT TUE MAY 03 2016

NOTE: "FAIR" INDICATES FEW OR NO CLOUDS BELOW 12,000 FEET WITH NO
SIGNIFICANT WEATHER AND/OR OBSTRUCTIONS TO VISIBILITY.


NDZ001>003-009>011-017-031300-
NORTHWEST NORTH DAKOTA

CITY           SKY/WX    TMP DP  RH WIND       PRES   REMARKS
WILLISTON      CLEAR     35  32  88 CALM      30.03R
6HR MIN TEMP:  34; 6HR MAX TEMP:  48;

MINOT          CLEAR     53  34  48 SW9       29.96R
MINOT AFB      CLEAR     46  35  66 W8        29.95R
$$

NDZ018>021-031>035-040>046-031300-
SOUTHWEST NORTH DAKOTA

CITY           SKY/WX    TMP DP  RH WIND       PRES   REMARKS
BISMARCK       CLOUDY    42  39  89 W5        30.01R
6HR MIN TEMP:  38; 6HR MAX TEMP:  45;

DICKINSON      CLOUDY    35  30  82 W6        30.02R
GARRISON         N/A     40  34  79 CALM      29.99R
6HR MIN TEMP:  38; 6HR MAX TEMP:  49;

HETTINGER ARPT CLOUDY    35  30  82 NW5       30.06R
$$

NDZ004>008-012>016-024-026-027-054-031300-
NORTHEAST NORTH DAKOTA

CITY           SKY/WX    TMP DP  RH WIND       PRES   REMARKS
GRAND FORKS    CLOUDY    51  39  63 W13       29.86F
GRND FRKS AFB  PTCLDY    52  38  58 W12       29.87S
DEVILS LAKE    CLOUDY    49  42  77 W10       29.92S
$$

NDZ022-023-025-028>030-036>039-047>053-031300-
SOUTHEAST NORTH DAKOTA

CITY           SKY/WX    TMP DP  RH WIND       PRES   REMARKS
FARGO          CLOUDY    48  39  71 SW10      29.91F
6HR MIN TEMP:  45; 6HR MAX TEMP:  50;

JAMESTOWN      CLOUDY    44  41  89 W8        29.94F
$$





USA.gov is the U.S. government's official web portal to all federal, state and local government web resources and services.